Location: Unspecified
(0.0000°N, 0.0000°E)
Time: 19:29:07
(UTC+02:00)

Ariane H10 - Visible Passes

Search period start: 25 October 2014 00:00
Search period end: 03 November 2014 23:00
Orbit: 415 x 35155 km, 3.9° (Epoch: 24 October)

Date Brightness Start Highest point End Pass type
(mag) Time Alt. Az. Time Alt. Az. Time Alt. Az.
25 Oct 5.4 03:50:25 10° W 04:48:20 40° ESE 04:50:44 10° E visible
25 Oct 8.6 15:38:31 10° W 19:44:57 90° S 00:57:28 80° SW visible
26 Oct 6.4 11:14:16 10° W 11:21:07 77° N 20:44:11 26° E visible
27 Oct 11.7 19:10:47 10° W 20:40:55 30° W 00:17:35 10° W visible
28 Oct 4.1 04:30:17 77° SSE 04:30:17 77° SSE 04:33:50 10° E visible
28 Oct 8.6 15:23:24 10° W 17:14:11 87° WNW 00:40:30 63° WSW visible
29 Oct 6.9 11:57:31 10° W 12:07:13 79° N 21:27:10 39° E visible
30 Oct 11.9 20:19:03 10° W 21:23:46 17° W 23:11:49 10° W visible
31 Oct 3.3 05:12:08 40° W 05:14:01 82° S 05:16:57 10° E visible
31 Oct 8.7 16:09:14 10° W 01:23:23 47° W 01:23:23 47° W visible
01 Nov 7.5 12:40:57 10° W 20:36:25 85° SE 22:10:01 54° E visible
03 Nov 2.5 05:53:54 14° W 05:57:42 86° N 06:00:15 10° E visible
03 Nov 10.3 16:56:32 10° W 18:42:16 58° W 23:00:00 31° W visible
